sat.trackr.live / text

‹ back to catalog

STARLINK-34267

NORAD 65080 · 2025-167C

PAYLOAD ACTIVE UNKNOWN

§ Identity

Operator
Country
US
Launch date
2025-08-04
Launch site
AFETR
Launch vehicle
Mass (kg)
RCS (m²)

Purposes: comms

External: N2YO · Heavens-Above · Gunter

§ Orbital elements

Epoch: 2026-09-20T22:25:50.155392Z

Period
93.85 min
Inclination
53.1521°
Eccentricity
0.0002220
Mean motion
15.34409606 rev/d
Perigee alt
461.2 km
Apogee alt
464.2 km
Semi-major
6,840.8 km
B*
3.5658e-4
RAAN
193.3672°
Arg perigee
78.3164°
Mean anomaly
281.8088°
Rev number
6,468

§ Raw data

STARLINK-342671 65080U 25167C   26263.93460828  .00011694  00000+0  35658-3 0  99992 65080  53.1521 193.3672 0002220  78.3164 281.8088 15.34409606 64681

JSON: /api/v1/satellites/65080 · /tle

For live sub-satellite position, see the globe view (requires WebGL).

§ Visibility from observer

Set your observer location to see the next 7 days of passes ≥ 10°. The values pass through the URL so the page stays shareable.

No JS? Fill the form by hand. The geolocation button needs JavaScript.